SUPERBIRD 8 (43271 NORAD) Tracking and Keplerian Element Data

This shows tracking and keplerian element data for the satellite.

Feedback or suggestion? Click here.




ElementValue
Catalog43271
NameSUPERBIRD 8
Epoch Orbit226
Epoch Day317.40422203
Epoch Year2018
RAAN105.5706
Inclination0.0522
Eccentricity0.0001086
Argument of Perigee97.3891
Mean Anonmoly157.0629
Mean Motion1.00271946
Decay Rate-9.3E-07
L11 43271U 18033A 18317.40422203 -.00000093 00000-0 00000+0 0 9991
L22 43271 0.0522 105.5706 0001086 97.3891 157.0629 1.00271946 2264

Live tracking and technical data element details for SUPERBIRD 8 (NORAD 43271). SUPERBIRD 8 can be tracked NOW for your location showing map with azimuth and elevation plus other details from your city location.

Track the satellite on the map from your city or location and see movement details for azimuth, elevation, latitude, longitude, range, height, and movement on the map or in text.







IsCatalogInMostPopularTable: catalog: 43271, numindb: 150
Update: records affected: 1



GetName: 43271 SUPERBIRD 8

Hit Count: updated at: Wed, 14 Nov 2018 16:18:08 GMT